Hatteras, NC

11:01 PM EST on November 11, 2019 (GMT -0500)
Mitchell

Weather History for KHSE - October, 2019

Change the Weather History Date:

Wednesday, October 23, 2019

  Actual Average Record
Temperature  
Mean Temperature 62 °F 64 °F  
Max Temperature 107 °F 70 °F 83 °F (2007)
Min Temperature 54 °F 57 °F 38 °F (1974)
Degree Days  
Heating Degree Days 2 3  
Month to date heating degree days 18 40  
Since 1 July heating degree days 18 43  
Cooling Degree Days 0 2  
Month to date cooling degree days 57 85  
Year to date cooling degree days 2135 1677  
Growing Degree Days 12 (Base 50)    
Moisture  
Dew Point 58 °F    
Average Humidity 79    
Maximum Humidity 100    
Minimum Humidity 33    
Precipitation  
Precipitation 0.00 in 0.18 in 2.05 in (1990)
Month to date precipitation 5.40 4.03  
Year to date precipitation 47.26 47.47  
Snow  
Snow 0.00 in - - ()
Month to date snowfall 0.0  
Since 1 July snowfall 0.0  
Snow Depth 0.00 in    
Sea Level Pressure  
Sea Level Pressure 30.06 in    
Wind  
Wind Speed 6 mph ()    
Max Wind Speed 12 mph    
Max Gust Speed 19 mph    
Visibility 9.9 miles    
Events      
T = Trace of Precipitation, MM = Missing Value Source: Averaged Metar Reports

Daily Weather History Graph

Daily Weather History Graph

Search for Another Location

Airport or City:

Astronomy

Oct. 23, 2019 Rise Set
Actual Time 7:15 AM EDT 6:17 PM EDT
Civil Twilight 6:49 AM EDT 6:43 PM EDT
Nautical Twilight 6:19 AM EDT 7:13 PM EDT
Astronomical Twilight 5:50 AM EDT 7:42 PM EDT
Moon 1:47 AM EDT (10/23) 3:52 PM EDT (10/23)
Length of Visible Light 11h 54m
Length of Day
11h 02m
Waning Crescent, 27% of the Moon is Illuminated
Oct 23
Waning Crescent
Oct 27
New
Nov 4
First Quarter
Nov 12
Full
Nov 19
Last Quarter

Hourly Weather History & Observations

Time (EDT) Temp. Dew Point Humidity Pressure Visibility Wind Dir Wind Speed Gust Speed Precip Events Conditions
1:51 AM 71.1 °F 70.0 °F 96% 29.85 in 10.0 mi West 8.1 mph - N/A   Clear
2:51 AM 68.0 °F 68.0 °F 100% 29.85 in 8.0 mi WNW 8.1 mph - N/A   Partly Cloudy
3:51 AM 66.0 °F 64.9 °F 96% 29.88 in 10.0 mi NW 8.1 mph - N/A   Clear
4:51 AM 64.9 °F 62.1 °F 90% 29.90 in 10.0 mi NNW 8.1 mph - N/A   Clear
5:51 AM 63.0 °F 62.1 °F 97% 29.94 in 10.0 mi NNW 9.2 mph - N/A   Clear
6:51 AM 63.0 °F 62.1 °F 97% 29.96 in 10.0 mi Variable 5.8 mph - N/A   Clear
7:51 AM 63.0 °F 60.1 °F 90% 29.98 in 10.0 mi North 6.9 mph - N/A   Clear
8:51 AM 66.0 °F 61.0 °F 84% 30.03 in 10.0 mi Variable 4.6 mph - N/A   Clear
9:51 AM 68.0 °F 60.1 °F 76% 30.05 in 10.0 mi Variable 4.6 mph - N/A   Clear
10:51 AM 68.0 °F 57.9 °F 70% 30.07 in 10.0 mi Variable 6.9 mph 18.4 mph N/A   Clear
11:51 AM 68.0 °F 59.0 °F 73% 30.09 in 10.0 mi North 8.1 mph 16.1 mph N/A   Clear
12:51 PM 69.1 °F 59.0 °F 70% 30.09 in 10.0 mi Variable 5.8 mph - N/A   Clear
1:51 PM 69.1 °F 57.0 °F 65% 30.07 in 10.0 mi North 8.1 mph - N/A   Clear
2:51 PM 69.1 °F 54.0 °F 58% 30.09 in 10.0 mi North 8.1 mph 17.3 mph N/A   Clear
3:51 PM 69.1 °F 54.0 °F 58% 30.10 in 10.0 mi North - - N/A   Clear
4:51 PM 68.0 °F 53.1 °F 59% 30.11 in 10.0 mi Variable 5.8 mph - N/A   Clear
5:51 PM 64.9 °F 54.0 °F 68% 30.13 in 10.0 mi ENE 4.6 mph - N/A   Clear
6:51 PM 59.0 °F 54.0 °F 83% 30.16 in 10.0 mi ENE 3.5 mph - N/A   Clear
7:51 PM 59.0 °F 52.0 °F 78% 30.18 in 10.0 mi ENE 4.6 mph - N/A   Partly Cloudy
8:51 PM 55.9 °F 52.0 °F 87% 30.20 in 10.0 mi ENE 4.6 mph - N/A   Partly Cloudy
9:51 PM 55.0 °F 52.0 °F 89% 30.22 in 10.0 mi ENE 3.5 mph - N/A   Scattered Clouds
10:51 PM 54.0 °F 52.0 °F 93% 30.23 in 10.0 mi NE 3.5 mph - N/A   Clear
11:51 PM 82.9 °F 51.1 °F 33% 30.23 in 10.0 mi NNE 3.5 mph - N/A   Clear